Location: Chamberlain Observatory
(39.0028°N, 90.1630°W)
Time: 23:28:07
(UTC-06:00)

Daily predictions for brighter satellites

Satellite Brightness Start Highest point End
(mag) Time Altitude Azimuth Time Altitude Azimuth Time Altitude Azimuth
Meteor 1-18 Rocket 4.3 18:06:57 10° N 18:12:32 86° W 18:18:11 10° S
Meteor 1-20 Rocket 4.4 18:06:50 10° S 18:12:40 90° ESE 18:18:33 10° N
NOAA 12 4.4 18:08:35 10° SE 18:13:41 49° ENE 18:18:49 10° N
COSMO-SKYMED 1 2.7 18:10:22 10° N 18:14:43 84° WNW 18:19:04 10° SSW
CZ-4 R/B 4.3 18:13:42 10° SSW 18:17:03 24° W 18:20:29 10° NW
BREEZE-M DEB (TANK) 4.3 18:15:57 10° NNW 18:18:28 24° NNE 18:23:32 10° E
SJ-6B 3.5 18:15:15 10° SE 18:18:51 33° ENE 18:22:23 10° N
GPS 2-04 Rocket1 4.1 18:16:29 10° SW 18:20:12 30° SSE 18:24:00 10° E
TSX-5 3.4 18:19:50 10° SSW 18:23:01 77° WNW 18:26:15 10° NNE
Cosmos 2322 4.0 18:17:49 10° NNW 18:23:21 46° ENE 18:28:48 10° SE
Cosmos 2181 Rocket 4.2 18:20:23 10° N 18:26:29 51° E 18:32:37 10° SSE
METEOR-M 4.1 18:22:58 10° SSE 18:28:14 66° ENE 18:33:33 10° N
Cosmos 1633 2.6 18:25:33 10° S 18:29:09 56° E 18:32:46 10° NNE
Cosmos 407 Rocket 4.4 18:24:05 10° SW 18:29:12 54° WNW 18:34:26 10° N
Gbstr 26 Del rocket 2.6 18:25:18 10° SW 18:29:13 79° SE 18:32:57 10° NE
Cosmos 1818 4.5 18:29:18 10° SW 18:34:34 51° NW 18:39:54 10° NNE
Cosmos 676 Rocket 4.4 18:29:51 10° SSW 18:35:00 69° WNW 18:40:14 10° NNE
ALOS 2.8 18:30:47 10° SE 18:35:04 38° ENE 18:39:24 10° N
Cosmos 1709 Rocket 4.0 18:31:18 10° S 18:37:31 83° E 18:43:42 10° N
H-2A R/B 3.9 18:35:55 10° ESE 18:38:50 22° ENE 18:41:48 10° NNE
Abrixas rocket 2.8 18:35:56 10° SSW 18:39:06 39° SE 18:41:21 17° ENE
COSMOS 2428 3.4 18:34:37 10° N 18:39:45 34° ENE 18:44:51 10° ESE
Meteor 1-13 Rocket 4.2 18:34:37 10° N 18:40:10 68° E 18:45:48 10° SSE
Cosmos 2237 Rocket 4.0 18:38:02 10° NNE 18:40:29 13° NE 18:42:00 12° ENE
Okean 1 Rocket 3.2 18:38:16 10° S 18:42:38 53° E 18:47:00 10° NNE
Meteor 2-4 Rocket 3.9 18:38:38 10° N 18:43:54 44° ENE 18:49:01 10° SSE
FREGAT/IRIS 2.5 18:41:48 10° SSE 18:44:52 74° E 18:47:58 10° N
Cosmos 1570 Rocket 4.4 18:40:05 10° N 18:45:04 42° ENE 18:50:01 10° SE
Cosmos 1140 Rocket 3.4 18:40:42 10° SSW 18:45:49 89° ESE 18:51:00 10° NNE
Cosmos 1536 3.0 18:42:44 10° SSE 18:46:32 45° E 18:50:22 10° NNE
Cosmos 614 Rocket 3.8 18:46:14 10° S 18:51:17 75° ESE 18:56:22 10° NNE
ATLAS CENTAUR R/B 3.1 18:48:30 10° S 18:52:06 19° SE 18:52:48 18° ESE
Cosmos 2360 Rocket 2.3 18:49:47 10° NNW 18:55:28 85° WSW 19:01:08 10° SSE
Tiangong 2 3.4 18:53:22 10° W 18:55:40 19° SW 18:57:57 10° SSE
Cosmos 2219 Rocket 3.2 18:51:45 10° N 18:56:23 26° ENE 18:58:31 21° E
CZ-3C R/B 3.8 18:53:20 10° SW 18:56:36 12° SSW 18:58:45 10° S
Cosmos 2219 3.2 18:52:12 10° S 18:57:49 59° ESE 19:03:28 10° NNE
DELTA 2 R/B (1) 4.1 18:52:41 10° W 18:58:10 56° SSW 19:02:40 15° SE
Cosmos 1025 Rocket 3.4 18:55:03 10° N 18:59:11 40° ENE 19:03:18 10° SSE
Cosmos 2227 Rocket 3.7 18:59:13 10° SE 19:01:13 16° ESE 19:01:13 16° ESE
Spot 2 Rocket 3.5 18:59:11 10° SSE 19:04:06 57° ENE 19:09:04 10° N
USA 229 DEB 4.1 19:00:43 10° NNW 19:07:36 48° NE 19:12:08 22° ESE
USA 229 4.1 19:00:49 10° NNW 19:07:41 47° NE 19:12:11 22° ESE
SL-08 ROCKET BODY 4.4 19:03:06 10° S 19:09:13 71° E 19:15:24 10° NNE
Intercosmos 24 4.3 19:07:31 10° S 19:11:37 61° E 19:17:29 10° NNE
Cosmos 2285 Rocket 4.2 19:06:26 10° N 19:12:39 48° ENE 19:17:17 18° SE
Cosmos 2208 Rocket 4.0 19:08:03 10° NNW 19:13:31 72° ENE 19:18:52 10° SSE
Okean 1-7 Rocket 3.5 19:09:16 10° N 19:13:49 81° E 19:18:16 10° S
SL-16 R/B 4.3 19:13:41 10° NE 19:13:57 10° NE 19:13:57 10° NE
Meteor 1-11 Rocket 4.3 19:10:03 10° SSW 19:15:47 65° WNW 19:21:40 10° N
Cosmos 1850 Rocket 4.2 19:12:09 10° SSW 19:17:26 76° WNW 19:22:47 10° NNE
Envisat 4.1 19:21:24 25° NE 19:21:24 25° NE 19:24:50 10° NNE
HJ-1C 4.0 19:17:59 10° S 19:21:18 57° W 19:24:38 10° NNW
NOSS 0 Rocket 4.4 19:18:07 10° N 19:23:48 37° ENE 19:25:11 33° E
Cosmos 2333 Rocket 2.6 19:29:01 10° N 19:34:28 42° ENE 19:35:00 41° ENE
SAR-Lupe-4 3.5 19:35:07 75° NNE 19:35:07 75° NNE 19:38:28 10° N
Cosmos 1980 4.3 19:34:43 10° N 19:39:35 36° NE 19:39:35 36° NE
Genesis I 4.3 19:44:11 10° NW 19:47:54 41° WSW 19:49:02 32° SSW
Resurs 01 Rocket 2.7 19:45:03 10° S 19:49:14 43° W 19:53:27 10° NNW
Helios 1A 2.9 19:50:39 80° SW 19:50:45 81° WSW 19:54:56 10° NNW
Hubble Space Telescope 3.2 19:56:32 10° SSW 19:57:31 14° SSW 19:57:31 14° SSW
GPS 2-04 Rocket1 3.8 19:55:33 10° WSW 19:58:47 43° SW 19:58:47 43° SW
Helios 1B rocket 2.9 19:56:20 10° N 20:00:26 60° WNW 20:04:31 10° SSW
Okean 2 4.0 19:57:22 10° NNW 20:01:27 55° W 20:01:43 54° WSW
Cosmos 405 Rocket 4.3 20:07:04 10° NNW 20:09:28 32° NW 20:09:28 32° NW
BREEZE-M DEB (TANK) 3.6 20:16:41 10° WNW 20:19:58 56° SW 20:19:58 56° SW
COSMOS 2428 4.2 20:18:55 10° NW 20:23:56 33° WSW 20:27:30 17° SSW
Cosmos 2237 Rocket 2.8 20:19:45 10° NNW 20:23:52 49° NNW 20:23:52 49° NNW
Atlas Centaur 2 4.4 20:21:58 10° SSW 20:23:41 15° SSW 20:23:41 15° SSW
Cosmos 2219 Rocket 3.1 20:35:12 10° NW 20:40:18 43° W 20:40:18 43° W
Cosmos 2227 Rocket 3.9 20:40:58 10° SW 20:43:12 24° SW 20:43:12 24° SW
SL-16 R/B 4.2 20:54:10 10° NNW 20:55:51 20° NNW 20:55:51 20° NNW
NOSS 3-1 (A) 4.5 21:03:52 10° NW 21:09:35 56° NW 21:09:35 56° NW
ATLAS 2AS CENTAUR R/B 4.4 21:10:08 10° NNW 21:14:30 28° N 21:14:30 28° N
Cosmos 2333 Rocket 4.2 21:13:45 10° NW 21:17:03 24° W 21:17:03 24° W
